sat.trackr.live / text

‹ back to catalog

STARLINK-37272

NORAD 68726 · 2026-081AD

PAYLOAD ACTIVE UNKNOWN

§ Identity

Operator
Country
US
Launch date
2026-04-14
Launch site
AFETR
Launch vehicle
Mass (kg)
RCS (m²)

Purposes: comms

External: N2YO · Heavens-Above · Gunter

§ Orbital elements

Epoch: 2026-09-19T11:14:02.266656Z

Period
93.85 min
Inclination
53.1580°
Eccentricity
0.0001505
Mean motion
15.34403780 rev/d
Perigee alt
461.7 km
Apogee alt
463.7 km
Semi-major
6,840.8 km
B*
8.6846e-4
RAAN
210.2765°
Arg perigee
88.7473°
Mean anomaly
271.3702°
Rev number
2,446

§ Raw data

STARLINK-372721 68726U 26081AD  26262.46808179  .00029084  00000+0  86846-3 0  99942 68726  53.1580 210.2765 0001505  88.7473 271.3702 15.34403780 24467

JSON: /api/v1/satellites/68726 · /tle

For live sub-satellite position, see the globe view (requires WebGL).

§ Visibility from observer

Set your observer location to see the next 7 days of passes ≥ 10°. The values pass through the URL so the page stays shareable.

No JS? Fill the form by hand. The geolocation button needs JavaScript.